Location: Peebles
(55.6412°N, 3.1714°W)
Time: 08:17:05
(UTC+00:00)

COSMOS 2251 DEB - Pass Details

Date: 02 December 2022
Orbit: 738 x 761 km, 74.0° (Epoch: 29 January)

Event Time Altitude Azimuth Distance (km) Brightness Sun altitude
Exits shadow 04:08:03 15° 16° (NNE) 1,944 ? -33.9°
Drops below altitude 10° 04:08:57 10° 20° (NNE) 2,260 ? -33.8°
Sets 04:11:26 0° 28° (NNE) 3,187 ? -33.5°
